Dewpoint
23 20 21 21 20 20 25 20 22 28 24 26 25 24 24 26 28 28 27 26 23 22 23 24 23 23 23 24 24 24 23 23 23 24 25 25 25 24 24 24 24 25 24 25
32 18 19 25 24 21 28 25 27 28 23 23 22 25 25 27 29 28 28 25 21 19 17 17 17 20 18 21 24 23 22 21 22 23 23 23 24 23 24 23 25 25 26 26
25 21 22 24 32 29 26 24 23 20 20 19 22 25 29 30 29 29 28 24 17 15 17 18 18 17 17 18 21 21 22 21 21 21 21 22 22 22 23 23 24 24 25 26
27 23 20 30 21 21 24 21 18 19 19 20 24 29 31 32 31 29 27 21 16 16 18 19 15 14 14 12 14 17 17 20 21 21 21 21 22 21 22 24 23 23 23 24
25 21 20 20 21 22 23 21 22 21 22 26 28 28 30 30 31 31 29 24 28 24 23 20 18 16 14 13 12 14 15 15 16 21 21 21 21 22 23 23 23 22 22 21
24 20 17 21 22 27 28 25 23 26 28 28 27 29 37 30 30 28 29 26 25 25 22 24 23 20 21 19 19 19 19 18 16 16 19 21 22 22 23 23 23 22 21 20
24 24 23 22 25 28 21 25 29 30 30 30 30 32 34 31 29 26 25 24 26 25 24 24 24 22 20 20 19 20 20 20 21 19 20 20 21 23 22 22 22 22 22 22
24 27 20 24 27 24 26 31 32 33 36 35 34 30 32 32 26 23 22 24 24 23 22 23 23 22 20 19 20 20 19 19 20 21 23 23 22 22 22 22 21 21 20 18
24 23 30 30 28 32 31 31 34 34 34 36 31 30 30 27 23 21 22 23 24 23 22 23 23 23 20 21 21 21 20 19 20 20 22 24 24 23 22 22 21 21 19 19
26 28 27 29 29 31 32 34 34 33 34 33 31 29 28 26 21 18 18 20 21 21 21 21 23 22 22 21 21 20 19 19 20 20 22 23 22 22 22 22 21 21 20 20
27 31 30 31 33 33 33 34 33 33 33 32 30 28 27 26 22 19 18 19 19 19 19 21 22 22 22 21 20 19 19 19 18 18 20 20 20 20 19 20 19 19 20 19
31 30 31 33 34 32 34 34 33 32 30 30 29 27 25 23 19 15 15 16 16 17 18 18 18 17 17 17 16 16 15 15 16 16 16 16 16 17 15 16 15 16 14 17
33 33 35 33 31 31 32 33 32 31 30 29 27 26 23 21 18 16 12 13 14 15 17 17 15 14 14 13 13 10 9 9 12 13 13 15 15 14 16 16 14 13 13 13
34 32 32 31 32 31 30 30 31 30 29 28 26 25 23 20 17 13 11 12 12 13 15 16 16 16 16 14 12 14 14 14 16 17 17 18 18 17 17 17 17 17 13 12
33 32 31 30 29 29 28 29 28 28 28 27 26 24 22 19 17 16 14 13 12 14 16 16 15 17 15 14 14 16 16 17 19 19 19 18 19 18 17 16 16 15 14 10
32 29 29 29 29 29 28 28 28 28 27 26 24 22 21 19 17 15 16 15 15 15 17 19 17 18 15 13 14 17 19 18 17 19 18 18 17 16 15 14 15 13 11 10
30 29 29 29 29 29 29 28 28 27 26 26 25 23 21 20 20 20 22 18 20 21 19 19 20 20 20 19 20 19 19 18 16 17 15 15 14 14 12 12 10 9 10 8
29 29 29 29 29 30 30 29 28 27 26 26 28 26 25 24 23 23 21 21 21 21 21 21 21 20 21 21 19 18 17 16 14 15 13 14 12 10 11 10 7 8 9 8
29 28 29 28 29 30 30 29 29 29 29 27 26 25 24 25 24 22 22 20 19 19 21 20 19 19 19 19 17 16 16 16 14 11 11 10 12 9 11 12 10 10 7 6
29 30 29 30 31 32 31 32 29 27 26 26 25 24 23 22 21 20 20 18 19 19 20 19 18 16 16 17 17 14 16 17 13 14 14 12 14 14 11 4 6 9 10 8
32 33 32 31 32 31 30 28 26 25 25 25 23 23 21 21 20 19 18 15 19 19 17 17 16 16 15 16 15 19 18 17 16 14 13 13 11 11 11 10 10 8 7 6
32 31 31 32 30 29 27 28 27 25 24 24 24 22 20 20 19 19 19 17 16 17 16 16 15 16 15 17 14 19 17 15 14 13 12 12 12 10 10 9 7 7 6 5
32 31 32 30 29 29 28 27 25 25 24 23 21 22 22 20 19 18 15 14 15 17 16 17 16 17 17 19 19 18 16 14 13 12 11 10 10 9 8 7 6 5 4 2
30 30 29 28 28 27 26 26 25 25 24 23 23 23 22 22 22 20 16 15 15 18 19 20 18 17 17 19 18 17 14 13 11 10 7 2 8 5 5 3 2 3 0 -2
29 27 26 26 26 26 26 25 24 23 23 22 21 22 23 23 24 21 20 17 17 17 19 17 16 16 19 17 16 14 12 11 10 8 6 5 4 3 4 2 -1 1 -1 -2
26 26 25 25 25 25 24 23 23 23 22 23 23 24 25 24 24 21 19 17 17 17 18 17 17 17 17 14 13 11 10 6 5 5 3 3 2 2 0 -2 -2 -2 -2 -3
25 25 24 24 23 24 24 24 25 24 25 25 23 24 24 24 22 19 19 19 19 19 18 18 17 16 14 12 10 8 8 6 3 3 3 2 1 2 -1 -2 -1 -2 -4 -6
Lifted_Index
1 1 1 1 1 1 1 1 1 1 2 2 3 4 4 4 4 4 5 6 6 6 8 10 11 13 14 14 15 15 15 14 15 15 16 16 17 18 18 18 17 17 16 16
1 1 1 1 1 1 1 1 1 2 2 2 3 4 4 4 4 4 5 6 6 7 9 11 12 13 14 14 15 15 14 14 14 15 16 16 17 17 17 18 17 17 17 17
1 1 1 1 1 1 1 2 2 2 3 3 4 4 4 4 3 4 5 6 7 8 10 13 14 14 15 15 15 14 14 14 14 15 15 16 16 16 17 17 17 17 17 17
1 1 1 1 1 2 2 2 2 2 3 3 4 4 3 3 3 4 5 6 7 9 12 14 15 15 15 15 15 14 14 14 15 15 15 16 16 16 16 17 17 17 17 17
1 1 1 1 1 2 2 2 2 3 3 3 3 3 2 3 3 4 6 7 9 11 13 15 15 15 15 15 14 14 14 15 16 16 16 16 16 16 17 17 17 17 18 18
1 1 1 1 1 2 2 2 2 3 3 3 3 2 2 3 4 5 6 8 10 13 14 15 15 16 15 14 14 14 15 16 16 17 16 16 16 17 17 18 18 18 18 19
1 1 1 1 1 2 2 2 2 3 3 3 2 2 3 3 4 5 7 9 12 14 14 15 16 16 15 14 14 15 16 16 17 17 17 17 17 17 18 18 18 18 18 18
0 0 1 1 2 2 2 2 3 3 3 3 2 2 3 4 4 5 7 10 13 14 14 15 16 16 15 14 15 16 17 17 17 18 18 18 17 17 17 18 17 17 17 17
1 1 1 2 2 2 2 2 3 3 3 3 2 3 3 4 4 5 7 10 13 14 15 15 16 16 15 15 16 16 17 17 17 17 18 18 18 17 17 17 17 16 16 17
1 1 1 2 2 2 2 3 3 3 3 3 3 3 3 4 4 5 7 10 13 14 14 15 16 16 16 16 16 16 16 16 17 17 17 18 18 18 17 17 17 17 17 17
1 1 1 2 2 2 2 3 3 3 3 3 3 3 4 4 5 5 7 10 13 14 14 15 16 16 16 17 16 16 16 16 17 17 17 18 18 18 19 20 19 19 19 19
1 1 2 2 2 2 2 3 3 2 2 3 3 4 4 4 5 5 7 10 13 14 14 15 16 16 17 17 17 16 16 16 16 17 17 17 18 18 20 21 22 22 22 22
2 2 2 2 2 3 3 3 2 2 3 3 4 4 4 4 5 6 7 10 12 14 15 15 16 16 17 17 17 16 16 16 17 17 17 18 18 18 19 20 22 23 23 24
2 3 3 3 3 3 3 3 3 3 3 4 4 4 4 4 5 6 7 10 13 14 15 15 16 16 17 18 18 17 16 17 17 17 17 18 18 18 19 19 20 21 23 24
3 4 4 4 4 4 4 4 4 4 4 5 4 4 4 4 5 6 7 10 12 14 14 15 16 17 18 18 18 18 17 17 17 17 18 18 19 19 19 19 19 20 22 23
5 5 5 5 5 5 5 5 5 5 5 5 4 4 4 4 5 6 8 10 12 13 14 15 16 17 18 19 19 18 18 18 18 18 18 18 19 19 19 20 20 20 21 22
5 5 5 6 6 6 6 6 6 5 5 5 5 4 4 4 5 6 7 10 12 14 15 16 16 17 18 19 19 19 19 19 19 19 19 19 19 19 20 20 20 20 21 22
4 5 5 6 6 6 6 6 5 5 5 5 5 5 5 5 6 7 8 10 12 14 15 16 17 18 18 19 19 19 19 19 19 19 19 19 20 20 20 20 20 21 22 22
5 5 5 6 6 6 6 5 5 5 6 6 6 6 6 7 8 9 10 11 13 14 16 17 17 18 18 19 19 19 19 19 19 19 19 20 20 20 20 21 21 21 22 22
5 6 6 6 7 6 6 6 6 6 7 7 7 7 8 9 11 11 12 12 14 15 16 17 18 18 19 19 19 19 19 19 19 19 19 19 19 20 20 21 21 21 22 22
6 6 7 7 7 7 7 7 7 7 7 8 8 9 9 11 12 12 13 14 15 16 17 18 18 18 19 19 19 19 19 19 19 19 19 19 19 20 20 21 21 21 22 22
7 7 7 7 7 7 8 8 8 8 8 9 9 10 10 11 12 13 13 14 16 17 18 18 18 19 19 19 19 19 19 19 19 19 19 20 20 20 20 21 21 21 22 22
8 7 7 7 7 8 8 9 9 9 9 9 10 11 11 12 12 12 13 15 16 17 18 18 18 19 19 19 19 19 19 19 19 19 20 20 20 21 21 21 21 22 22 23
8 8 8 8 8 8 9 9 9 9 9 10 11 11 12 12 13 13 14 15 17 17 18 18 19 19 19 19 19 19 19 19 20 20 20 20 21 21 21 22 22 22 23 23
8 8 8 8 8 8 9 9 9 9 9 10 11 12 12 13 13 13 14 16 17 17 18 18 18 18 18 18 18 19 19 19 20 20 20 21 21 22 22 22 22 23 23 23
7 8 8 8 8 9 9 9 9 9 9 9 10 11 12 13 13 14 15 16 17 17 17 17 18 18 18 18 18 19 19 20 20 21 21 21 21 22 22 22 23 23 23 23
7 7 8 8 8 9 9 9 8 8 9 9 10 11 12 13 13 14 15 16 16 16 17 17 17 17 18 18 18 19 19 20 20 21 21 21 22 22 22 22 23 23 23 23